Home > Weather > Serekunda > Past weeks

Flag for Gambia Weather for the Past 2 Weeks in Serekunda, Gambia

Now
82 °F

Sunny.


Feels Like: 84 °F
Forecast: 68 / 80 °F
Wind: 14 mph from North

Location: Banjul / Yundum

Current Time: Apr 29, 2016 at 5:02:13 PM

Latest Report: Apr 29, 2016 at 4:00 PM


Visibility: 10 mi

Pressure: 29.77 "Hg

Humidity: 55%

Dew Point: 64 °F

Location of SerekundaLocation

Historic Weather in Serekunda — Graph

°F

Serekunda Temperature Yesterday

Maximum temperature yesterday: 100 °F (at 3:00 PM)
Minimum temperature yesterday: 66 °F (at 6:00 AM)
Average temperature yesterday: 73 °F

High & Low Weather Summary for the Past Weeks

 TemperatureHumidityPressure
High109 °F (Apr 14, 4:00 PM)94% (Apr 18, 3:00 AM)30.07 "Hg (Apr 18, 3:00 AM)
Low66 °F (Apr 28, 6:00 AM)14% (Apr 14, 5:00 PM)29.68 "Hg (Apr 14, 5:00 PM)
Average79 °F67%29.81 "Hg
* Reported Apr 14 4:00 PM — Apr 29 4:00 PM, Serekunda, Weather by CustomWeather, © 2016

Note: Actual official high and low records may vary slightly from our data, if they occured in-between our weather recording intervals... More about our weather records

Advertising

Serekunda Weather History for the Previous 24 Hours

Scroll right to see more
 ConditionsComfort  
Time TempWeatherWind HumidityBarometerVisibility
4:00 PM
Fri, Apr 29
82 °FSunny.14 mph55%29.77 "Hg10 mi
3:00 PM84 °FSunny.15 mph51%29.77 "Hg10 mi
2:00 PM84 °FSunny.8 mph51%29.80 "Hg10 mi
1:00 PM84 °FSunny.14 mph43%29.80 "Hg10 mi
12:00 PM81 °FSunny.14 mph51%29.83 "Hg10 mi
11:00 AM77 °FSunny.13 mph61%29.86 "Hg10 mi
10:00 AM73 °FSunny.12 mph74%29.83 "Hg10 mi
9:00 AM72 °FScattered clouds.10 mph78%29.86 "HgN/A
8:00 AM68 °FSunny.12 mph94%29.83 "Hg10 mi
7:00 AM68 °FSunny.10 mph88%29.83 "Hg10 mi
6:00 AM68 °FFog.12 mph78%29.83 "Hg6 mi
5:00 AM66 °FFog.17 mph94%29.83 "Hg6 mi
4:00 AM66 °FFog.14 mph94%29.83 "Hg6 mi
3:00 AM66 °FFog.14 mph94%29.83 "Hg6 mi
2:00 AM66 °FClear.14 mph94%29.83 "Hg10 mi
1:00 AM68 °FClear.12 mph88%29.83 "Hg10 mi
12:00 AM68 °FClear.12 mph88%29.86 "Hg10 mi
11:00 PM
Thu, Apr 28
70 °FClear.12 mph83%29.89 "Hg10 mi
10:00 PM70 °FClear.12 mph83%29.86 "Hg10 mi
9:00 PM70 °FClear.12 mph83%29.86 "Hg10 mi
8:00 PM68 °FClear.12 mph94%29.83 "Hg10 mi
7:00 PM73 °FSunny.12 mph83%29.83 "Hg10 mi
5:00 PM79 °FSunny.12 mph61%29.83 "Hg10 mi
Weather by CustomWeather, © 2016

See weather overviewHow to use our weather pages